Regional Weather Roundup
Issued by NWS

Home | Current Version | Previous Version | Graphics & Text | Print | Product List | Glossary On
Versions: 1 2 3 4 5 6 7 8 9 10 11 12 13 14 15 16 17 18 19 20 21 22 23 24 25 26 27
000
ASUS45 KCYS 241110
RWRWY

WYOMING REGIONAL WEATHER ROUNDUP
NATIONAL WEATHER SERVICE CHEYENNE WY
400 AM MST FRI NOV 24 2017

NOTE:  "FAIR" INDICATES FEW OR NO CLOUDS BELOW 12,000 FEET
WITH NO SIGNIFICANT WEATHER AND/OR OBSTRUCTIONS TO VISIBILITY.

WYZ001-241200-
YELLOWSTONE NATIONAL PARK

CITY           SKY/WX    TMP DP  RH WIND       PRES   REMARKS
LK YELLOWSTONE   N/A     36  34  92 W12G20    29.92R WCI  28
W YELLOWSTONE  NOT AVBL

$$
WYZ002>013-054>058-071-098>099-241200-
NORTHERN WYOMING

CITY           SKY/WX    TMP DP  RH WIND       PRES   REMARKS
JACKSON        CLOUDY    49  32  52 SW25G35     N/A
CODY           FAIR      52  33  48 W7        29.69F
GREYBULL       MOCLDY    36  32  85 SE3       29.65F
WORLAND        FAIR      46  35  65 SW10      29.68F
SHERIDAN       FAIR      49  40  71 N21G31    29.68R
BUFFALO        MOCLDY    52  31  44 N37G48    29.70R
GILLETTE       FAIR      57  31  37 SW25G36   29.59S
HULETT         FAIR      54  32  43 SW10      29.59F
NEWCASTLE      FAIR      37  30  75 CALM      29.65F

$$
WYZ014>020-022>026-101>103-241200-
CENTRAL WYOMING

CITY           SKY/WX    TMP DP  RH WIND       PRES   REMARKS
BIG PINEY      FAIR      41  30  65 W14       29.96F
PINEDALE       CLOUDY    34  34 100 CALM      29.97F
DUBOIS         DRIZZLE   43  30  61 W22G33    29.83F
LANDER         FAIR      55  28  35 CALM      29.83S
RIVERTON       FAIR      49  28  44 W13       29.81F
CASPER         FAIR      49  33  54 SW23      29.76F
DOUGLAS        FAIR      59  33  37 W36G47    29.70F

$$
WYZ021-027>030-104>119-241200-
SOUTHERN WYOMING

CITY           SKY/WX    TMP DP  RH WIND       PRES   REMARKS
EVANSTON       FAIR      45  30  55 W13       30.02F
KEMMERER       FAIR      39  32  75 SW8       30.02S WCI  34
FORT BRIDGER   FAIR      41  31  67 W7        30.04S
ROCK SPRINGS   CLOUDY    43  31  62 W8        30.00F
DIXON          FAIR      46  28  50 SW9       30.06F
RAWLINS        LGT RAIN  46  31  55 W25G36    29.95F
SARATOGA       FAIR      41  30  65 SE9       29.99F
LARAMIE        FAIR      46  29  51 W22G28    29.92F
CHEYENNE       FAIR      55  28  35 W22G38    29.84F
TORRINGTON     FAIR      60  35  39 W16G26    29.72F
PINE BLUFFS    FAIR      50  30  46 W6        29.84S

$$




USA.gov is the U.S. government's official web portal to all federal, state and local government web resources and services.